Jackson, MN

5:23 PM CST on November 11, 2019 (GMT -0600)
Jackson Municipal

Weather History for KMJQ - August, 2019

Change the Weather History Date:

Wednesday, August 28, 2019

  Actual Average Record
Temperature  
Mean Temperature 61 °F -  
Max Temperature 71 °F 76 °F 138 °F (1997)
Min Temperature 51 °F 56 °F 50 °F (2001)
Degree Days  
Heating Degree Days 4    
Growing Degree Days 11 (Base 50)    
Moisture  
Dew Point 49 °F    
Average Humidity 68    
Maximum Humidity 88    
Minimum Humidity 43    
Precipitation  
Precipitation 0.00 in - - ()
Sea Level Pressure  
Sea Level Pressure 29.98 in    
Wind  
Wind Speed 11 mph (West)    
Max Wind Speed 25 mph    
Max Gust Speed 32 mph    
Visibility 10 miles    
Events      
Averages and records for this station are not official NWS values.
T = Trace of Precipitation, MM = Missing Value Source: NWS Daily Summary

Daily Weather History Graph

Daily Weather History Graph

Search for Another Location

Airport or City:

Astronomy

Aug. 28, 2019 Rise Set
Actual Time 6:38 AM CDT 8:02 PM CDT
Civil Twilight 6:09 AM CDT 8:32 PM CDT
Nautical Twilight 5:33 AM CDT 9:08 PM CDT
Astronomical Twilight 4:54 AM CDT 9:46 PM CDT
Moon 4:06 AM CDT (8/28) 7:20 PM CDT (8/28)
Length of Visible Light 14h 23m
Length of Day
13h 23m
Waning Crescent, 4% of the Moon is Illuminated
Aug 28
Waning Crescent
Aug 30
New
Sep 5
First Quarter
Sep 13
Full
Sep 21
Last Quarter

Hourly Weather History & Observations

Time (CDT) Temp. Dew Point Humidity Pressure Visibility Wind Dir Wind Speed Gust Speed Precip Events Conditions
12:15 AM 55.4 °F 50.0 °F 82% 29.94 in 10.0 mi West 9.2 mph - N/A   Clear
12:35 AM 55.4 °F 48.2 °F 77% 29.94 in 10.0 mi West 10.4 mph 18.4 mph N/A   Clear
12:55 AM 55.4 °F 48.2 °F 77% 29.94 in 10.0 mi West 12.7 mph - N/A   Clear
12:56 AM 55.4 °F 48.2 °F 77% 29.94 in 10.0 mi West 13.8 mph - N/A   Clear
1:15 AM 55.4 °F 48.2 °F 77% 29.95 in 10.0 mi West 12.7 mph 17.3 mph N/A   Clear
1:35 AM 55.4 °F 48.2 °F 77% 29.94 in 10.0 mi West 11.5 mph 16.1 mph N/A   Clear
1:55 AM 55.4 °F 48.2 °F 77% 29.94 in 10.0 mi West 8.1 mph - N/A   Clear
1:56 AM 55.4 °F 48.2 °F 77% 29.94 in 10.0 mi WSW 9.2 mph - N/A   Clear
2:15 AM 53.6 °F 48.2 °F 82% 29.94 in 10.0 mi West 11.5 mph - N/A   Clear
2:35 AM 55.4 °F 48.2 °F 77% 29.95 in 10.0 mi West 11.5 mph - N/A   Clear
2:55 AM 55.4 °F 48.2 °F 77% 29.95 in 10.0 mi West 9.2 mph - N/A   Clear
3:15 AM 55.4 °F 48.2 °F 77% 29.95 in 10.0 mi West 8.1 mph - N/A   Clear
3:35 AM 53.6 °F 48.2 °F 82% 29.95 in 10.0 mi West 8.1 mph - N/A   Clear
3:55 AM 53.6 °F 48.2 °F 82% 29.95 in 10.0 mi West 10.4 mph - N/A   Clear
4:15 AM 53.6 °F 48.2 °F 82% 29.96 in 10.0 mi West 11.5 mph - N/A   Clear
4:35 AM 53.6 °F 48.2 °F 82% 29.96 in 10.0 mi West 11.5 mph - N/A   Clear
4:55 AM 53.6 °F 48.2 °F 82% 29.97 in 10.0 mi West 10.4 mph - N/A   Clear
5:15 AM 53.6 °F 48.2 °F 82% 29.97 in 10.0 mi West 9.2 mph - N/A   Clear
5:35 AM 51.8 °F 48.2 °F 88% 29.98 in 10.0 mi West 10.4 mph - N/A   Clear
5:36 AM 51.8 °F 48.2 °F 88% 29.97 in 10.0 mi West 9.2 mph - N/A   Clear
5:55 AM 51.8 °F 48.2 °F 88% 29.98 in 10.0 mi West 9.2 mph - N/A   Clear
6:15 AM 51.8 °F 46.4 °F 82% 29.98 in 10.0 mi West 9.2 mph - N/A   Clear
6:35 AM 51.8 °F 46.4 °F 82% 29.99 in 10.0 mi West 8.1 mph - N/A   Clear
6:55 AM 51.8 °F 48.2 °F 88% 29.99 in 10.0 mi West 9.2 mph - N/A   Clear
7:15 AM 51.8 °F 48.2 °F 88% 30.00 in 10.0 mi West 9.2 mph - N/A   Clear
7:35 AM 53.6 °F 48.2 °F 82% 30.00 in 10.0 mi West 9.2 mph - N/A   Clear
7:55 AM 53.6 °F 50.0 °F 88% 30.00 in 10.0 mi West 9.2 mph - N/A   Clear
8:15 AM 55.4 °F 50.0 °F 82% 30.00 in 10.0 mi WSW 10.4 mph - N/A   Clear
8:16 AM 55.4 °F 50.0 °F 82% 30.00 in 10.0 mi WSW 10.4 mph - N/A   Clear
8:35 AM 57.2 °F 50.0 °F 77% 30.01 in 10.0 mi WSW 8.1 mph - N/A   Clear
8:55 AM 59.0 °F 50.0 °F 72% 30.01 in 10.0 mi West 9.2 mph - N/A   Clear
9:16 AM 59.0 °F 50.0 °F 72% 30.01 in 10.0 mi West 11.5 mph - N/A   Clear
9:35 AM 60.8 °F 51.8 °F 72% 30.01 in 10.0 mi West 16.1 mph - N/A   Clear
9:55 AM 62.6 °F 51.8 °F 68% 30.02 in 10.0 mi West 13.8 mph 17.3 mph N/A   Clear
10:15 AM 62.6 °F 51.8 °F 68% 30.02 in 10.0 mi West 12.7 mph 18.4 mph N/A   Clear
10:35 AM 64.4 °F 50.0 °F 59% 30.03 in 10.0 mi West 17.3 mph 20.7 mph N/A   Clear
10:55 AM 64.4 °F 50.0 °F 59% 30.03 in 10.0 mi WNW 20.7 mph 26.5 mph N/A   Clear
11:15 AM 66.2 °F 50.0 °F 56% 30.03 in 10.0 mi WNW 20.7 mph 28.8 mph N/A   Clear
11:35 AM 68.0 °F 50.0 °F 52% 30.03 in 10.0 mi WNW 19.6 mph 23.0 mph N/A   Clear
11:55 AM 68.0 °F 48.2 °F 49% 30.03 in 10.0 mi West 17.3 mph 24.2 mph N/A   Clear
12:15 PM 68.0 °F 48.2 °F 49% 30.03 in 10.0 mi West 23.0 mph 28.8 mph N/A   Clear
12:35 PM 69.8 °F 50.0 °F 49% 30.03 in 10.0 mi West 19.6 mph 26.5 mph N/A   Clear
12:55 PM 69.8 °F 48.2 °F 46% 30.02 in 10.0 mi WNW 20.7 mph 24.2 mph N/A   Clear
1:15 PM 69.8 °F 48.2 °F 46% 30.02 in 10.0 mi WNW 25.3 mph 32.2 mph N/A   Scattered Clouds
1:35 PM 69.8 °F 50.0 °F 49% 30.02 in 10.0 mi WNW 18.4 mph 24.2 mph N/A   Scattered Clouds
1:55 PM 71.6 °F 48.2 °F 43% 30.02 in 10.0 mi WNW 15.0 mph 26.5 mph N/A   Scattered Clouds
2:15 PM 71.6 °F 48.2 °F 43% 30.01 in 10.0 mi WNW 20.7 mph 26.5 mph N/A   Clear
2:35 PM 69.8 °F 48.2 °F 46% 30.01 in 10.0 mi West 17.3 mph 24.2 mph N/A   Scattered Clouds
2:55 PM 71.6 °F 50.0 °F 46% 30.00 in 10.0 mi NW 17.3 mph 20.7 mph N/A   Scattered Clouds
3:15 PM 71.6 °F 50.0 °F 46% 30.00 in 10.0 mi WNW 13.8 mph - N/A   Scattered Clouds
3:35 PM 71.6 °F 50.0 °F 46% 30.00 in 10.0 mi WNW 12.7 mph 21.9 mph N/A   Clear
3:55 PM 71.6 °F 48.2 °F 43% 29.99 in 10.0 mi WNW 18.4 mph - N/A   Clear
4:15 PM 71.6 °F 48.2 °F 43% 29.99 in 10.0 mi West 16.1 mph 23.0 mph N/A   Clear
4:35 PM 71.6 °F 48.2 °F 43% 29.99 in 10.0 mi WNW 16.1 mph 23.0 mph N/A   Clear
4:55 PM 71.6 °F 48.2 °F 43% 29.99 in 10.0 mi West 13.8 mph - N/A   Clear
4:56 PM 71.6 °F 48.2 °F 43% 29.99 in 10.0 mi West 12.7 mph - N/A   Clear
5:15 PM 71.6 °F 50.0 °F 46% 29.98 in 10.0 mi West 11.5 mph 17.3 mph N/A   Scattered Clouds
5:35 PM 71.6 °F 50.0 °F 46% 29.98 in 10.0 mi West 10.4 mph 18.4 mph N/A   Scattered Clouds
5:55 PM 71.6 °F 48.2 °F 43% 29.98 in 10.0 mi West 12.7 mph - N/A   Clear
6:15 PM 71.6 °F 50.0 °F 46% 29.97 in 10.0 mi West 10.4 mph - N/A   Clear
6:35 PM 69.8 °F 50.0 °F 49% 29.97 in 10.0 mi West 9.2 mph - N/A   Clear
6:56 PM 69.8 °F 51.8 °F 53% 29.96 in 10.0 mi West 5.8 mph - N/A   Clear
7:15 PM 68.0 °F 51.8 °F 56% 29.96 in 10.0 mi WSW 3.5 mph - N/A   Clear
7:35 PM 68.0 °F 51.8 °F 56% 29.96 in 10.0 mi WSW 4.6 mph - N/A   Clear
7:55 PM 66.2 °F 51.8 °F 60% 29.96 in 10.0 mi Calm Calm - N/A   Clear
8:15 PM 64.4 °F 51.8 °F 64% 29.96 in 7.0 mi SW 3.5 mph - N/A   Clear
8:35 PM 62.6 °F 51.8 °F 68% 29.96 in 10.0 mi SSW 3.5 mph - N/A   Clear
8:55 PM 59.0 °F 51.8 °F 77% 29.96 in 10.0 mi Calm Calm - N/A   Clear
9:15 PM 59.0 °F 51.8 °F 77% 29.96 in 10.0 mi Calm Calm - N/A   Clear
9:35 PM 57.2 °F 51.8 °F 82% 29.96 in 10.0 mi SSW 3.5 mph - N/A   Clear
9:55 PM 57.2 °F 51.8 °F 82% 29.96 in 10.0 mi South 3.5 mph - N/A   Clear
10:15 PM 55.4 °F 51.8 °F 88% 29.96 in 10.0 mi Calm Calm - N/A   Clear
10:35 PM 55.4 °F 51.8 °F 88% 29.96 in 10.0 mi SSW 6.9 mph - N/A   Clear
10:55 PM 55.4 °F 50.0 °F 82% 29.95 in 10.0 mi SSW 3.5 mph - N/A   Clear
11:15 PM 55.4 °F 51.8 °F 88% 29.95 in 10.0 mi Calm Calm - N/A   Clear
11:35 PM 53.6 °F 50.0 °F 88% 29.94 in 10.0 mi South 4.6 mph - N/A   Clear
11:55 PM 55.4 °F 51.8 °F 88% 29.94 in 10.0 mi Calm Calm - N/A   Clear